• en France
  • Liste des pays
  • À 7 jours
  • Température de l'eau
  • Carte satellitaire
  • Carte météo
  • Widgets météo
  • user-avatar
    Se connecter

    Météo par heure à San Isidro

    Ce jour, 13 Décembre, Mercredi

    Heure Température Précipitation Vent Pression Humidité
    00:00 +21°C° 0 mm 2 m/s 699 mmHg 90%
    01:00 +21°C° 0,6 mm 2 m/s 698 mmHg 90%
    02:00 +20°C° 0,6 mm 2 m/s 698 mmHg 90%
    03:00 +21°C° 0,6 mm 1 m/s 698 mmHg 90%
    04:00 +21°C° 0,2 mm 1 m/s 698 mmHg 90%
    05:00 +21°C° 0,2 mm 1 m/s 699 mmHg 90%
    06:00 +21°C° 0,2 mm 1 m/s 699 mmHg 90%
    07:00 +23°C° 0,1 mm 1 m/s 699 mmHg 85%
    08:00 +24°C° 0,1 mm 1 m/s 700 mmHg 81%
    09:00 +25°C° 0,1 mm 1 m/s 700 mmHg 77%
    10:00 +26°C° 0,1 mm 2 m/s 700 mmHg 77%
    11:00 +26°C° 0,1 mm 2 m/s 700 mmHg 78%
    12:00 +26°C° 0,1 mm 2 m/s 699 mmHg 78%
    13:00 +26°C° 0,5 mm 2 m/s 699 mmHg 80%
    14:00 +25°C° 0,5 mm 2 m/s 698 mmHg 82%
    15:00 +25°C° 0,5 mm 2 m/s 698 mmHg 85%
    16:00 +24°C° 0,3 mm 2 m/s 698 mmHg 87%
    17:00 +23°C° 0,3 mm 2 m/s 698 mmHg 90%
    18:00 +21°C° 0,3 mm 2 m/s 698 mmHg 92%
    19:00 +21°C° 0,1 mm 2 m/s 698 mmHg 91%
    20:00 +21°C° 0,1 mm 2 m/s 698 mmHg 90%
    21:00 +21°C° 0,1 mm 2 m/s 698 mmHg 89%
    22:00 +21°C° 0,2 mm 2 m/s 698 mmHg 89%
    23:00 +21°C° 0,2 mm 2 m/s 698 mmHg 89%

    Demain, 14 Décembre, Jeudi

    Heure Température Précipitation Vent Pression Humidité
    00:00 +21°C° 0,2 mm 2 m/s 698 mmHg 89%
    01:00 +21°C° 0,2 mm 2 m/s 697 mmHg 90%
    02:00 +22°C° 0,2 mm 1 m/s 697 mmHg 90%
    03:00 +22°C° 0,2 mm 1 m/s 697 mmHg 91%
    04:00 +22°C° 0,4 mm 1 m/s 697 mmHg 91%
    05:00 +22°C° 0,4 mm 1 m/s 697 mmHg 91%
    06:00 +22°C° 0,4 mm 1 m/s 697 mmHg 92%
    07:00 +23°C° 0,6 mm 1 m/s 698 mmHg 90%
    08:00 +23°C° 0,6 mm 1 m/s 698 mmHg 88%
    09:00 +24°C° 0,6 mm 1 m/s 699 mmHg 86%
    10:00 +24°C° 0,6 mm 1 m/s 698 mmHg 85%
    11:00 +24°C° 0,6 mm 1 m/s 698 mmHg 85%
    12:00 +25°C° 0,6 mm 1 m/s 698 mmHg 84%
    13:00 +25°C° 0,2 mm 1 m/s 697 mmHg 84%
    14:00 +25°C° 0,2 mm 2 m/s 697 mmHg 84%
    15:00 +26°C° 0,2 mm 2 m/s 696 mmHg 83%
    16:00 +25°C° 0,1 mm 1 m/s 696 mmHg 87%
    17:00 +24°C° 0,1 mm 1 m/s 697 mmHg 90%
    18:00 +23°C° 0,1 mm 1 m/s 697 mmHg 94%
    19:00 +22°C° 0,1 mm 1 m/s 697 mmHg 92%
    20:00 +22°C° 0,1 mm 1 m/s 698 mmHg 91%
    21:00 +21°C° 0,1 mm 1 m/s 698 mmHg 89%
    22:00 +21°C° 0,1 mm 1 m/s 698 mmHg 88%
    23:00 +20°C° 0,1 mm 1 m/s 697 mmHg 87%

    Après-demain, 15 Décembre, Vendredi

    Heure Température Précipitation Vent Pression Humidité
    00:00 +20°C° 0,1 mm 1 m/s 697 mmHg 85%
    01:00 +20°C° 0,1 mm 1 m/s 697 mmHg 82%
    02:00 +19°C° 0,1 mm 1 m/s 696 mmHg 79%
    03:00 +19°C° 0,1 mm 1 m/s 696 mmHg 76%
    04:00 +19°C° 0,1 mm 1 m/s 696 mmHg 75%
    05:00 +19°C° 0,1 mm 1 m/s 696 mmHg 74%
    06:00 +19°C° 0,1 mm 1 m/s 697 mmHg 72%
    07:00 +22°C° 0 mm 1 m/s 698 mmHg 68%
    08:00 +24°C° 0 mm 1 m/s 698 mmHg 63%
    09:00 +27°C° 0 mm 1 m/s 699 mmHg 59%
    10:00 +28°C° 0 mm 1 m/s 699 mmHg 60%
    11:00 +28°C° 0 mm 1 m/s 698 mmHg 61%
    12:00 +29°C° 0 mm 2 m/s 698 mmHg 62%
    13:00 +28°C° 0,1 mm 2 m/s 697 mmHg 68%
    14:00 +27°C° 0,1 mm 2 m/s 697 mmHg 74%
    15:00 +26°C° 0,1 mm 2 m/s 696 mmHg 80%
    16:00 +25°C° 0,1 mm 1 m/s 696 mmHg 85%
    17:00 +24°C° 0,1 mm 1 m/s 696 mmHg 90%
    18:00 +23°C° 0,1 mm 1 m/s 696 mmHg 95%
    19:00 +23°C° 0 mm 1 m/s 697 mmHg 94%
    20:00 +22°C° 0 mm 1 m/s 697 mmHg 93%
    21:00 +22°C° 0 mm 1 m/s 698 mmHg 92%
    22:00 +21°C° 0 mm 1 m/s 698 mmHg 90%
    23:00 +21°C° 0 mm 1 m/s 697 mmHg 88%

    16 Décembre, Samedi

    Heure Température Précipitation Vent Pression Humidité
    00:00 +20°C° 0 mm 1 m/s 697 mmHg 86%
    01:00 +20°C° 0 mm 1 m/s 697 mmHg 85%
    02:00 +20°C° 0 mm 1 m/s 696 mmHg 83%
    03:00 +20°C° 0 mm 1 m/s 696 mmHg 82%
    04:00 +20°C° 0 mm 1 m/s 696 mmHg 78%
    05:00 +20°C° 0 mm 1 m/s 696 mmHg 75%
    06:00 +20°C° 0 mm 1 m/s 697 mmHg 72%
    07:00 +22°C° 0 mm 1 m/s 697 mmHg 71%
    08:00 +25°C° 0 mm 1 m/s 698 mmHg 71%
    09:00 +27°C° 0 mm 1 m/s 699 mmHg 70%
    10:00 +28°C° 0 mm 1 m/s 699 mmHg 70%
    11:00 +28°C° 0 mm 2 m/s 698 mmHg 69%
    12:00 +29°C° 0 mm 2 m/s 698 mmHg 69%
    13:00 +28°C° 0,1 mm 2 m/s 697 mmHg 71%
    14:00 +28°C° 0,1 mm 2 m/s 697 mmHg 73%
    15:00 +27°C° 0,1 mm 2 m/s 696 mmHg 75%
    16:00 +26°C° 0 mm 2 m/s 696 mmHg 81%
    17:00 +24°C° 0 mm 2 m/s 696 mmHg 87%
    18:00 +23°C° 0 mm 1 m/s 696 mmHg 93%
    19:00 +21°C° 0,1 mm 2 m/s 697 mmHg 92%
    20:00 +21°C° 0,1 mm 2 m/s 697 mmHg 90%
    21:00 +20°C° 0,1 mm 2 m/s 697 mmHg 88%
    22:00 +20°C° 0,1 mm 2 m/s 697 mmHg 87%
    23:00 +20°C° 0,1 mm 2 m/s 697 mmHg 85%

    17 Décembre, Dimanche

    Heure Température Précipitation Vent Pression Humidité
    00:00 +20°C° 0,1 mm 2 m/s 697 mmHg 84%
    01:00 +19°C° 0,1 mm 2 m/s 696 mmHg 82%
    02:00 +19°C° 0,1 mm 2 m/s 696 mmHg 79%
    03:00 +19°C° 0,1 mm 2 m/s 696 mmHg 76%
    04:00 +19°C° 0,1 mm 2 m/s 696 mmHg 79%
    05:00 +20°C° 0,1 mm 2 m/s 697 mmHg 81%
    06:00 +20°C° 0,1 mm 2 m/s 697 mmHg 84%
    07:00 +23°C° 0 mm 2 m/s 698 mmHg 79%
    08:00 +25°C° 0 mm 2 m/s 698 mmHg 75%
    09:00 +27°C° 0 mm 2 m/s 699 mmHg 70%
    10:00 +28°C° 0,1 mm 2 m/s 698 mmHg 68%
    11:00 +28°C° 0,1 mm 2 m/s 698 mmHg 66%
    12:00 +29°C° 0,1 mm 2 m/s 697 mmHg 64%
    13:00 +28°C° 0,2 mm 2 m/s 697 mmHg 69%
    14:00 +28°C° 0,2 mm 2 m/s 696 mmHg 73%
    15:00 +27°C° 0,2 mm 2 m/s 695 mmHg 77%
    16:00 +25°C° 0,2 mm 2 m/s 695 mmHg 82%
    17:00 +24°C° 0,2 mm 2 m/s 696 mmHg 87%
    18:00 +23°C° 0,2 mm 2 m/s 696 mmHg 92%
    19:00 +23°C° 0,2 mm 2 m/s 696 mmHg 91%
    20:00 +23°C° 0,2 mm 2 m/s 697 mmHg 90%
    21:00 +21°C° 0,2 mm 2 m/s 697 mmHg 89%
    22:00 +21°C° 0,3 mm 2 m/s 697 mmHg 89%
    23:00 +21°C° 0,3 mm 2 m/s 696 mmHg 89%

    18 Décembre, Lundi

    Heure Température Précipitation Vent Pression Humidité
    00:00 +21°C° 0,3 mm 2 m/s 696 mmHg 89%
    01:00 +21°C° 0,2 mm 2 m/s 696 mmHg 89%
    02:00 +21°C° 0,2 mm 2 m/s 696 mmHg 89%
    03:00 +21°C° 0,2 mm 2 m/s 695 mmHg 90%
    04:00 +21°C° 0,1 mm 2 m/s 696 mmHg 89%
    05:00 +21°C° 0,1 mm 2 m/s 696 mmHg 89%
    06:00 +21°C° 0,1 mm 2 m/s 696 mmHg 88%
    07:00 +24°C° 0 mm 2 m/s 697 mmHg 81%
    08:00 +26°C° 0 mm 2 m/s 698 mmHg 73%
    09:00 +28°C° 0 mm 2 m/s 698 mmHg 66%
    10:00 +28°C° 0,1 mm 2 m/s 698 mmHg 68%
    11:00 +28°C° 0,1 mm 2 m/s 697 mmHg 70%
    12:00 +28°C° 0,1 mm 2 m/s 697 mmHg 72%
    13:00 +28°C° 0,2 mm 2 m/s 696 mmHg 75%
    14:00 +27°C° 0,2 mm 2 m/s 696 mmHg 78%
    15:00 +27°C° 0,2 mm 2 m/s 695 mmHg 81%
    16:00 +26°C° 0,1 mm 2 m/s 696 mmHg 86%
    17:00 +24°C° 0,1 mm 1 m/s 696 mmHg 90%
    18:00 +23°C° 0,1 mm 1 m/s 696 mmHg 95%
    19:00 +23°C° 0 mm 1 m/s 697 mmHg 93%
    20:00 +23°C° 0 mm 1 m/s 697 mmHg 92%
    21:00 +22°C° 0 mm 1 m/s 697 mmHg 91%
    22:00 +22°C° 0,1 mm 1 m/s 697 mmHg 90%
    23:00 +22°C° 0,1 mm 1 m/s 697 mmHg 90%
    Voir plus